| time (UTC) | temp C | wind direction | speed KPH | gust KPH | rain 1hr cm | rain 24hr cm | rain mn cm | humidity % | barometer mb |
| 20260502123014 | 8 | 59 | 0.0 | 0.0 | 0.05 | 0.51 | 0.51 | 95 | 1011.3 |
| 20260502121510 | 8 | 60 | 0.0 | 1.6 | 0.08 | 0.51 | 0.51 | 95 | 1011.4 |
| 20260502114505 | 7 | 347 | 0.0 | 0.0 | 0.08 | 0.51 | 0.51 | 95 | 1011.3 |
| 20260502113005 | 7 | 313 | 0.0 | 0.0 | 0.03 | 0.46 | 0.46 | 95 | 1011.8 |
| 20260502111503 | 7 | 313 | 0.0 | 0.0 | 0.13 | 0.43 | 0.43 | 95 | 1011.7 |
| 20260502110002 | 7 | 313 | 0.0 | 0.0 | 0.23 | 0.43 | 0.43 | 95 | 1011.5 |
| 20260502104500 | 7 | 313 | 0.0 | 0.0 | 0.23 | 0.43 | 0.43 | 95 | 1011.1 |
| 20260502103100 | 7 | 313 | 0.0 | 0.0 | 0.25 | 0.43 | 0.43 | 94 | 1011.4 |
| 20260502101625 | 7 | 314 | 0.0 | 0.0 | 0.13 | 0.30 | 0.30 | 94 | 1011.5 |
| 20260502100104 | 7 | 314 | 0.0 | 0.0 | 0.03 | 0.20 | 0.20 | 94 | 1011.0 |
| 20260502090108 | 7 | 248 | 0.0 | 0.0 | 0.13 | 0.18 | 0.18 | 93 | 1011.0 |
| 20260502070055 | 8 | 248 | 0.0 | 1.6 | 0.03 | 0.03 | 0.03 | 88 | 1011.1 |
| 20260502064545 | 8 | 243 | 0.0 | 0.0 | 0.00 | 0.00 | 0.00 | 87 | 1010.9 |
| 20260502063040 | 8 | 245 | 0.0 | 0.0 | 0.00 | 0.00 | 0.00 | 87 | 1010.9 |
| 20260502061540 | 8 | 245 | 0.0 | 0.0 | 0.00 | 0.00 | 0.00 | 85 | 1010.9 |
| 20260502060037 | 8 | 243 | 0.0 | 0.0 | 0.00 | 0.00 | 0.00 | 82 | 1011.0 |
| 20260502054539 | 8 | 243 | 0.0 | 0.0 | 0.00 | 0.00 | 0.00 | 82 | 1011.0 |
| 20260502053033 | 8 | 245 | 0.0 | 0.0 | 0.00 | 0.00 | 0.00 | 80 | 1011.0 |
| 20260502051531 | 9 | 243 | 0.0 | 0.0 | 0.00 | 0.00 | 0.00 | 79 | 1011.0 |
| 20260502050029 | 10 | 243 | 0.0 | 0.0 | 0.00 | 0.00 | 0.00 | 74 | 1011.4 |
| 20260502044525 | 10 | 242 | 0.0 | 0.0 | 0.00 | 0.00 | 0.00 | 73 | 1011.0 |
| 20260502043023 | 10 | 241 | 0.0 | 0.0 | 0.00 | 0.00 | 0.00 | 75 | 1010.6 |
| 20260502041521 | 10 | 242 | 0.0 | 0.0 | 0.00 | 0.00 | 0.00 | 73 | 1010.7 |
| 20260502040019 | 10 | 242 | 0.0 | 0.0 | 0.00 | 0.00 | 0.00 | 72 | 1010.6 |
| 20260502034524 | 10 | 242 | 0.0 | 0.0 | 0.00 | 0.00 | 0.00 | 72 | 1010.7 |
| 20260502033017 | 10 | 242 | 0.0 | 0.0 | 0.00 | 0.00 | 0.00 | 70 | 1010.7 |
| 20260502031517 | 10 | 242 | 0.0 | 0.0 | 0.00 | 0.00 | 0.00 | 69 | 1010.9 |
| 20260502030017 | 10 | 242 | 0.0 | 0.0 | 0.00 | 0.00 | 0.00 | 67 | 1010.9 |
| 20260502024515 | 10 | 242 | 0.0 | 0.0 | 0.00 | 0.00 | 0.00 | 67 | 1010.6 |
| 20260502023015 | 10 | 242 | 0.0 | 0.0 | 0.00 | 0.00 | 0.00 | 66 | 1010.6 |
| 20260502021515 | 10 | 242 | 0.0 | 0.0 | 0.00 | 0.00 | 0.00 | 66 | 1010.8 |
| 20260502020014 | 10 | 242 | 0.0 | 0.0 | 0.00 | 0.00 | 0.00 | 65 | 1010.7 |
| 20260502014513 | 10 | 242 | 0.0 | 0.0 | 0.00 | 0.00 | 0.00 | 63 | 1010.7 |
| 20260502013013 | 10 | 242 | 0.0 | 0.0 | 0.00 | 0.00 | 0.00 | 60 | 1010.6 |
| 20260502011521 | 10 | 242 | 0.0 | 0.0 | 0.00 | 0.00 | 0.00 | 62 | 1010.4 |
| 20260502010015 | 10 | 242 | 0.0 | 0.0 | 0.00 | 0.00 | 0.00 | 61 | 1010.2 |
| 20260502004511 | 11 | 242 | 0.0 | 0.0 | 0.00 | 0.00 | 0.00 | 58 | 1010.0 |
| 20260502003010 | 11 | 242 | 0.0 | 0.0 | 0.00 | 0.00 | 0.00 | 55 | 1009.9 |
| 20260502001512 | 12 | 242 | 0.0 | 0.0 | 0.00 | 0.00 | 0.00 | 53 | 1009.6 |
| 20260502000009 | 13 | 242 | 0.0 | 0.0 | 0.00 | 0.00 | 0.00 | 49 | 1009.4 |
| 20260501234508 | 13 | 242 | 0.0 | 0.0 | 0.00 | 0.00 | 0.00 | 45 | 1009.2 |
| 20260501233016 | 15 | 242 | 0.0 | 3.2 | 0.00 | 0.00 | 0.00 | 40 | 1009.0 |
| 20260501231506 | 15 | 252 | 0.0 | 1.6 | 0.00 | 0.00 | 0.00 | 38 | 1008.9 |
| 20260501230009 | 15 | 246 | 0.0 | 1.6 | 0.00 | 0.00 | 0.00 | 38 | 1008.8 |
| 20260501224505 | 16 | 283 | 0.0 | 3.2 | 0.00 | 0.00 | 0.00 | 36 | 1008.6 |
| 20260501223005 | 16 | 350 | 0.0 | 1.6 | 0.00 | 0.00 | 0.00 | 36 | 1008.5 |
| 20260501221504 | 16 | 40 | 0.0 | 6.4 | 0.00 | 0.00 | 0.00 | 35 | 1008.6 |
| 20260501220004 | 16 | 230 | 0.0 | 6.4 | 0.00 | 0.00 | 0.00 | 34 | 1008.6 |
| 20260501214503 | 17 | 293 | 1.6 | 6.4 | 0.00 | 0.00 | 0.00 | 33 | 1008.6 |
| 20260501213002 | 17 | 238 | 0.0 | 6.4 | 0.00 | 0.00 | 0.00 | 32 | 1008.6 |
| 20260501211601 | 17 | 276 | 0.0 | 8.0 | 0.00 | 0.00 | 0.00 | 34 | 1008.6 |
| 20260501210119 | 17 | 232 | 0.0 | 6.4 | 0.00 | 0.00 | 0.00 | 32 | 1008.5 |
| 20260501204600 | 17 | 246 | 3.2 | 8.0 | 0.00 | 0.00 | 0.00 | 30 | 1008.6 |
| 20260501203101 | 17 | 245 | 3.2 | 9.7 | 0.00 | 0.00 | 0.00 | 31 | 1008.3 |
| 20260501201604 | 16 | 224 | 0.0 | 9.7 | 0.00 | 0.00 | 0.00 | 33 | 1008.4 |
| 20260501200053 | 16 | 114 | 0.0 | 6.4 | 0.00 | 0.00 | 0.00 | 37 | 1008.4 |
| 20260501194551 | 16 | 242 | 1.6 | 17.7 | 0.00 | 0.00 | 0.00 | 33 | 1008.4 |
| 20260501193050 | 16 | 59 | 1.6 | 8.0 | 0.00 | 0.00 | 0.00 | 34 | 1008.4 |
| 20260501191557 | 16 | 245 | 0.0 | 6.4 | 0.00 | 0.00 | 0.00 | 34 | 1008.6 |
| 20260501190101 | 16 | 224 | 3.2 | 14.5 | 0.00 | 0.00 | 0.00 | 34 | 1008.8 |
| 20260501184548 | 16 | 225 | 1.6 | 11.3 | 0.00 | 0.00 | 0.00 | 34 | 1008.9 |
| 20260501183058 | 16 | 47 | 0.0 | 3.2 | 0.00 | 0.00 | 0.00 | 36 | 1009.1 |
| 20260501181602 | 15 | 217 | 0.0 | 6.4 | 0.00 | 0.00 | 0.00 | 37 | 1009.2 |
| 20260501180046 | 15 | 233 | 1.6 | 9.7 | 0.00 | 0.00 | 0.00 | 37 | 1009.4 |
| 20260501174546 | 15 | 332 | 0.0 | 4.8 | 0.00 | 0.03 | 0.00 | 37 | 1009.3 |
| 20260501173049 | 16 | 355 | 0.0 | 8.0 | 0.00 | 0.03 | 0.00 | 36 | 1009.3 |
| 20260501171543 | 16 | 239 | 0.0 | 12.9 | 0.00 | 0.03 | 0.00 | 36 | 1009.3 |
| 20260501170050 | 15 | 258 | 1.6 | 9.7 | 0.00 | 0.03 | 0.00 | 37 | 1009.5 |
| 20260501164546 | 16 | 240 | 0.0 | 9.7 | 0.00 | 0.03 | 0.00 | 38 | 1009.5 |
| 20260501163045 | 15 | 342 | 1.6 | 9.7 | 0.00 | 0.03 | 0.00 | 40 | 1009.6 |
| 20260501161538 | 15 | 243 | 0.0 | 8.0 | 0.00 | 0.03 | 0.00 | 39 | 1009.7 |
| 20260501160051 | 15 | 226 | 0.0 | 6.4 | 0.00 | 0.03 | 0.00 | 42 | 1009.9 |
| 20260501154532 | 14 | 217 | 1.6 | 6.4 | 0.00 | 0.05 | 0.00 | 42 | 1010.0 |
| 20260501153034 | 14 | 343 | 0.0 | 4.8 | 0.00 | 0.05 | 0.00 | 42 | 1010.0 |
| 20260501151528 | 13 | 56 | 0.0 | 8.0 | 0.00 | 0.05 | 0.00 | 45 | 1010.3 |
| 20260501150041 | 13 | 239 | 0.0 | 6.4 | 0.00 | 0.05 | 0.00 | 47 | 1010.3 |
| 20260501144528 | 13 | 5 | 0.0 | 4.8 | 0.00 | 0.05 | 0.00 | 48 | 1010.5 |
| 20260501143039 | 12 | 18 | 3.2 | 9.7 | 0.00 | 0.05 | 0.00 | 50 | 1010.5 |